Terminal Aerodrome Forecast
Issued by NWS Dallas/Fort Worth, TX

Home | Current Version | Previous Version | Text Only | Print | Product List | Glossary On
Versions: 1 2 3 4 5 6 7 8 9 10 11 12 13 14 15 16 17 18 19 20 21 22 23 24 25 26 27 28 29 30 31 32 33 34 35 36 37 38 39 40 41 42 43 44 45 46 47
000
FTUS44 KFWD 250345 AAA
TAFDFW
TAF AMD
KDFW 250345Z 2504/2606 14008KT P6SM FEW035 SCT100
     FM250600 17013KT P6SM BKN015
     FM250900 17010KT 5SM BR BKN008
     FM251500 18013KT P6SM BKN015
     FM251900 18015KT 3SM SHRA VCTS OVC022CB
     FM252200 22011KT P6SM SCT025 OVC100
     FM260300 16011KT P6SM VCTS OVC018CB=

USA.gov is the U.S. government's official web portal to all federal, state and local government web resources and services.